Muscle Shoals, AL

2:36 AM CDT on April 20, 2018 (GMT -0500)
Northwest Alabama Regional

Weather History for KMSL - August, 2014

Change the Weather History Date:

Wednesday, August 20, 2014

  Actual Average Record
Temperature  
Mean Temperature 83 °F 80 °F  
Max Temperature 93 °F 91 °F 104 °F (1925)
Min Temperature 72 °F 69 °F 54 °F (1940)
Degree Days  
Heating Degree Days 0 0  
Month to date heating degree days 0 0  
Since 1 June heating degree days 0 1  
Since 1 July heating degree days 0 0  
Cooling Degree Days 18 15  
Month to date cooling degree days 258 307  
Year to date cooling degree days 1283 1390  
Since 1 June cooling degree days 1026 1146  
Growing Degree Days 32 (Base 50)    
Moisture  
Dew Point 73 °F    
Average Humidity 73    
Maximum Humidity 93    
Minimum Humidity 52    
Precipitation  
Precipitation 0.00 in 0.11 in 2.49 in (1981)
Month to date precipitation 3.62 2.06  
Year to date precipitation 32.90 34.62  
Snow  
Snow 0.00 in - - ()
Month to date snowfall 0.0  
Since 1 June snowfall 0.0  
Since 1 July snowfall 0.0  
Snow Depth 0.00 in    
Sea Level Pressure  
Sea Level Pressure 30.01 in    
Wind  
Wind Speed 6 mph (WSW)    
Max Wind Speed 16 mph    
Max Gust Speed 24 mph    
Visibility 10 miles    
Events      
T = Trace of Precipitation, MM = Missing Value Source: NWS Daily Summary

Daily Weather History Graph

Daily Weather History Graph

Search for Another Location

Airport or City:

Astronomy

Aug. 20, 2014 Rise Set
Actual Time 6:14 AM CDT 7:32 PM CDT
Civil Twilight 5:48 AM CDT 7:58 PM CDT
Nautical Twilight 5:16 AM CDT 8:30 PM CDT
Astronomical Twilight 4:43 AM CDT 9:02 PM CDT
Moon 1:58 AM CDT 4:12 PM CDT
Length of Visible Light 14h 10m
Length of Day
13h 17m
Waning Crescent, 20% of the Moon is Illuminated
Aug 20
Waning Crescent
Aug 25
New
Sep 2
First Quarter
Sep 8
Full
Sep 15
Last Quarter

Hourly Weather History & Observations

Time (CDT) Temp. Heat Index Dew Point Humidity Pressure Visibility Wind Dir Wind Speed Gust Speed Precip Events Conditions
12:53 AM 73.9 °F - 70.0 °F 87% 29.92 in 10.0 mi Calm Calm - N/A   Clear
1:53 AM 77.0 °F - 71.1 °F 82% 29.91 in 10.0 mi WSW 4.6 mph - N/A   Clear
2:53 AM 75.0 °F - 71.1 °F 87% 29.92 in 10.0 mi Calm Calm - N/A   Clear
3:53 AM 73.0 °F - 70.0 °F 90% 29.93 in 8.0 mi Calm Calm - N/A   Clear
4:53 AM 73.9 °F - 71.1 °F 91% 29.95 in 6.0 mi Calm Calm - N/A   Clear
5:53 AM 75.0 °F - 72.0 °F 90% 29.97 in 10.0 mi WSW 4.6 mph - N/A   Clear
6:53 AM 75.9 °F - 72.0 °F 87% 29.99 in 10.0 mi West 4.6 mph - N/A   Clear
7:53 AM 79.0 °F - 73.9 °F 84% 30.01 in 10.0 mi WSW 6.9 mph - N/A   Clear
8:53 AM 82.0 °F 88.6 °F 75.0 °F 79% 30.03 in 10.0 mi West 8.1 mph - N/A   Clear
9:53 AM 86.0 °F 95.1 °F 75.0 °F 70% 30.04 in 10.0 mi West 8.1 mph - N/A   Clear
10:53 AM 88.0 °F 97.5 °F 75.0 °F 65% 30.04 in 10.0 mi West 11.5 mph - N/A   Clear
11:53 AM 90.0 °F 100.2 °F 75.0 °F 61% 30.04 in 10.0 mi West 8.1 mph - N/A   Clear
12:53 PM 91.9 °F 103.2 °F 75.0 °F 58% 30.04 in 10.0 mi West 10.4 mph - N/A   Partly Cloudy
1:53 PM 91.9 °F 100.7 °F 73.0 °F 54% 30.04 in 10.0 mi West 9.2 mph - N/A   Scattered Clouds
2:53 PM 91.0 °F 98.2 °F 72.0 °F 53% 30.01 in 10.0 mi West 11.5 mph - N/A   Partly Cloudy
3:53 PM 91.9 °F 100.7 °F 73.0 °F 54% 30.00 in 10.0 mi West 12.7 mph - N/A   Partly Cloudy
4:53 PM 91.0 °F 98.2 °F 72.0 °F 53% 29.98 in 10.0 mi WSW 10.4 mph - N/A   Clear
5:53 PM 90.0 °F 96.9 °F 72.0 °F 55% 29.97 in 10.0 mi WSW 11.5 mph - N/A   Clear
6:53 PM 87.1 °F 93.6 °F 72.0 °F 61% 30.00 in 10.0 mi West 6.9 mph - N/A   Clear
7:53 PM 81.0 °F 85.8 °F 73.0 °F 77% 30.05 in 10.0 mi Calm Calm - N/A   Clear
8:53 PM 81.0 °F 85.8 °F 73.0 °F 77% 30.06 in 10.0 mi South 3.5 mph - N/A   Clear
9:53 PM 78.1 °F - 73.0 °F 84% 30.08 in 10.0 mi Calm Calm - N/A   Clear
10:53 PM 75.9 °F - 72.0 °F 87% 30.08 in 10.0 mi Calm Calm - N/A   Clear
11:53 PM 73.9 °F - 71.1 °F 91% 30.09 in 10.0 mi SE 3.5 mph - N/A   Clear